Regional Weather Roundup
Issued by NWS

Home | Current Version | Previous Version | Graphics & Text | Print | Product List | Glossary On
Versions: 1 2 3 4 5 6 7 8 9 10 11 12 13 14 15 16 17 18 19 20 21 22 23 24 25 26 27 28 29 30 31 32 33 34 35 36 37 38 39 40 41 42 43 44 45 46 47 48 49 50
000
ASUS43 KBIS 240502
RWRND

NORTH DAKOTA REGIONAL WEATHER ROUNDUP
NATIONAL WEATHER SERVICE BISMARCK ND
1200 AM CDT FRI MAR 24 2017

NOTE: "FAIR" INDICATES FEW OR NO CLOUDS BELOW 12,000 FEET WITH NO
SIGNIFICANT WEATHER AND/OR OBSTRUCTIONS TO VISIBILITY.


NDZ001>003-009>011-017-240600-
NORTHWEST NORTH DAKOTA

CITY           SKY/WX    TMP DP  RH WIND       PRES   REMARKS
WILLISTON      FAIR      34  31  88 NE5       29.95R
MINOT          MOCLDY    33  30  88 N5        29.95R
MINOT AFB      CLOUDY    29  27  94 NW3       29.95R
$$

NDZ018>021-031>035-040>046-240600-
SOUTHWEST NORTH DAKOTA

CITY           SKY/WX    TMP DP  RH WIND       PRES   REMARKS
BISMARCK       FAIR      38  34  85 NW13      29.88F
DICKINSON      FAIR      35  34  96 SW8       29.89F
GARRISON         N/A     31  28  89 N6        29.93R
HETTINGER ARPT CLOUDY    35  34  96 NW8       29.91F
$$

NDZ004>008-012>016-024-026-027-054-240600-
NORTHEAST NORTH DAKOTA

CITY           SKY/WX    TMP DP  RH WIND       PRES   REMARKS
GRAND FORKS    PTCLDY    34  33  96 NW6       29.88F FOG
GRND FRKS AFB  CLOUDY    33  33  99 NW12      29.88F
DEVILS LAKE    FAIR      32  30  92 N13       29.93R
$$

NDZ022-023-025-028>030-036>039-047>053-240600-
SOUTHEAST NORTH DAKOTA

CITY           SKY/WX    TMP DP  RH WIND       PRES   REMARKS
FARGO          CLOUDY    35  35 100 CALM      29.89R FOG
JAMESTOWN      FAIR      34  33  96 N20       29.82F
$$




USA.gov is the U.S. government's official web portal to all federal, state and local government web resources and services.